Regional Weather Roundup
Issued by NWS

Home | Current Version | Previous Version | Text Only | Print | Product List | Glossary On
Versions: 1 2 3 4 5 6 7 8 9 10 11 12 13 14 15 16 17 18 19 20 21 22 23 24 25 26 27 28
000
ASUS44 KBMX 281810
RWRAL

ALABAMA REGIONAL WEATHER ROUNDUP
NATIONAL WEATHER SERVICE BIRMINGHAM AL
100 PM CDT SAT MAY 28 2016

NOTE: "FAIR" INDICATES FEW OR NO CLOUDS BELOW 12,000 FEET
WITH NO SIGNIFICANT WEATHER AND/OR OBSTRUCTIONS TO VISIBILITY.

THE REMARK "TC" DENOTES TEMPERATURE IN DEGREES CELSIUS.

ALZ001>011-014-016>018-020-281900-
NORTH ALABAMA

CITY           SKY/WX    TMP DP  RH WIND       PRES   REMARKS
MUSCLE SHOALS  MOSUNNY   87  60  40 S15       30.07F
6HR MIN TEMP:  71; 6HR MAX TEMP:  87;

HUNTSVILLE     CLOUDY    80  62  54 SE9       30.11S
6HR MIN TEMP:  72; 6HR MAX TEMP:  82; 6HR PCP: TRACE;

DECATUR        CLOUDY    78  61  55 S9        30.11S
6HR MIN TEMP:  68; 6HR MAX TEMP:  80; 6HR PCP:  0.01;

HALEYVILLE     PTSUNNY   81  64  56 S10G20    30.12S
6HR MIN TEMP:  69; 6HR MAX TEMP:  83; 6HR PCP: TRACE;

GADSDEN        CLOUDY    86  63  45 E6        30.10S
6HR MIN TEMP:  72; 6HR MAX TEMP:  86;

$$

ALZ012-013-022-023-030>036-040>044-281900-
WEST CENTRAL ALABAMA

CITY           SKY/WX    TMP DP  RH WIND       PRES   REMARKS
TUSCALOOSA     MOSUNNY   84  64  50 VRB5      30.08F
6HR MIN TEMP:  72; 6HR MAX TEMP:  84; 6HR PCP: TRACE;

$$

ALZ015-024>027-033>036-040>044-281900-
CENTRAL ALABAMA

CITY           SKY/WX    TMP DP  RH WIND       PRES   REMARKS
BIRMINGHAM     PTSUNNY   75  65  70 SE3       30.14S
6HR MIN TEMP:  71; 6HR MAX TEMP:  79; 6HR PCP: TRACE;

MONTGOMERY     CLOUDY    79  69  71 W6        30.08S
6HR MIN TEMP:  72; 6HR MAX TEMP:  79; 6HR PCP: TRACE;

SHELBY CO ARPT CLOUDY    78  64  61 S3        30.11S
6HR MIN TEMP:  70; 6HR MAX TEMP:  78; 6HR PCP: TRACE;

MAXWELL AFB    CLOUDY    81  71  71 NW6       30.07S
6HR MIN TEMP:  72; 6HR MAX TEMP:  81; 6HR PCP: TRACE;

GREENVILLE     FAIR      84  68  58 VRB5      30.07S
6HR MIN TEMP:  70; 6HR MAX TEMP:  85; 6HR PCP: TRACE;

$$

ALZ019-021-028-029-037-038-045>048-281900-
EAST CENTRAL ALABAMA

CITY           SKY/WX    TMP DP  RH WIND       PRES   REMARKS
ANNISTON       SUNNY     84  60  44 SE5       30.09F
6HR MIN TEMP:  73; 6HR MAX TEMP:  86;

ALEXANDER CITY MOSUNNY   82  69  65 S5        30.09F
6HR MIN TEMP:  70; 6HR MAX TEMP:  83;

AUBURN         MOSUNNY  N/A N/A N/A VRB6      30.10F
$$

ALZ051>064-281900-
SOUTHWEST ALABAMA

CITY           SKY/WX    TMP DP  RH WIND       PRES   REMARKS
MOBILE         CLOUDY    81  64  56 SE7       30.06S
6HR MIN TEMP:  71; 6HR MAX TEMP:  83;

BROOKLEY FIELD CLOUDY    81  67  62 S7        30.07R
6HR MIN TEMP:  75; 6HR MAX TEMP:  85;

EVERGREEN      MOSUNNY   84  67  56 SE10      30.08R
6HR MIN TEMP:  69; 6HR MAX TEMP:  85; 6HR PCP: TRACE;

$$

ALZ049-050-065>069-281900-
SOUTHEAST ALABAMA

CITY           SKY/WX    TMP DP  RH WIND       PRES   REMARKS
DOTHAN         MOSUNNY   88  58  36 VRB5      30.08F
6HR MIN TEMP:  71; 6HR MAX TEMP:  89;

OZARK          PTSUNNY   88  63  42 VRB7      30.04F
6HR MIN TEMP:  70; 6HR MAX TEMP:  88; 6HR PCP: TRACE;

TROY           MOSUNNY   88  63  43 SE6       30.06F
6HR MIN TEMP:  72; 6HR MAX TEMP:  88;

EUFAULA        PTSUNNY   86  63  45 NE5       30.06F
6HR MIN TEMP:  73; 6HR MAX TEMP:  89;

$$




USA.gov is the U.S. government's official web portal to all federal, state and local government web resources and services.